CAPE
0 0 0 0 0 0 0 0 0 0 0 0 66 204 975 91 0 367 590 1196 799 614 599 962 1298 1291 1267 1195 1195 1174 1378 1322 1125 1053 1036 1149 1011 784 505 590 457 230 19 7 8 10 10 6 0
0 0 0 0 0 0 0 0 0 1 22 19 14 12 1045 99 1 129 1191 1335 790 550 467 957 1249 1202 1189 1117 1220 1224 1408 1284 1355 1358 1102 1121 933 643 451 412 221 46 7 12 10 3 1 0 0
0 0 0 0 0 0 0 0 0 0 1 16 112 688 380 0 742 824 1272 1201 881 603 459 1073 1140 1090 1146 1185 1232 1180 1154 1210 1149 1058 982 1132 809 524 431 221 57 16 7 12 5 0 0 0 0
0 0 0 0 0 0 0 0 0 0 0 0 64 1719 553 513 1435 993 1423 1228 921 760 562 845 925 968 1128 1215 1220 1096 1084 990 881 866 781 877 548 395 306 56 23 11 5 7 0 0 0 0 13
0 0 0 0 0 0 2 0 0 0 0 0 0 1842 1850 1520 1503 1135 1380 1179 1094 834 527 899 777 864 1051 1228 1187 1014 1025 989 916 924 668 642 560 190 23 19 15 5 8 2 0 0 0 0 11
0 0 0 0 0 0 0 0 0 0 0 0 0 1042 2245 1713 1347 1371 1321 1238 1456 751 547 863 932 890 912 982 936 819 894 909 760 584 471 430 194 29 12 16 8 6 4 1 0 0 0 15 4
0 0 0 0 0 0 0 0 2 0 0 0 0 34 1909 1777 1538 1483 1373 1664 1474 810 516 708 936 993 773 671 632 683 759 662 545 404 283 123 3 5 13 11 3 4 4 0 0 0 0 0 17
0 0 0 0 0 0 0 0 0 0 0 0 0 19 1756 1859 1619 1597 1840 1994 1502 991 691 566 581 634 688 638 476 545 516 374 377 260 111 0 0 10 18 18 11 5 4 1 0 0 0 0 0
0 0 0 0 0 0 0 0 0 0 0 0 0 1904 1772 1783 2031 2095 1931 1800 1438 1076 831 673 459 358 262 619 737 557 518 355 277 168 15 0 0 4 8 17 15 12 8 0 0 0 0 0 0
0 0 0 0 0 0 0 0 0 0 0 0 60 2260 1864 1670 2173 2009 1762 1616 1432 1173 985 762 567 358 236 196 530 500 344 153 165 148 68 53 34 2 0 12 5 6 0 0 0 0 0 0 0
0 0 0 0 0 0 0 0 0 0 0 0 182 2085 1988 1633 2012 1821 1672 1504 1501 1342 1305 903 798 641 285 262 332 304 160 146 152 185 177 29 0 0 0 3 2 0 0 0 0 0 0 14 0
0 0 0 0 0 0 0 0 0 0 0 0 46 2103 1978 1641 1607 1405 1468 1350 1857 1579 1428 1085 1044 837 531 125 186 132 102 125 184 238 103 32 1 0 0 1 0 0 0 0 0 0 12 0 3
0 0 0 0 0 0 0 0 0 0 0 0 333 1559 1897 1737 1598 1423 1364 1321 1799 1726 1663 1443 1161 1212 426 80 178 46 51 154 102 148 108 82 0 0 4 20 12 1 0 4 2 0 0 0 0
0 0 0 0 0 0 0 0 0 0 0 0 0 852 1556 1730 1641 1562 1630 1640 1413 1443 1670 1582 1187 1390 358 64 367 305 171 325 125 150 125 165 10 0 18 29 24 28 5 0 0 0 0 0 0
0 0 0 0 0 0 0 0 0 0 0 0 0 0 379 1652 2070 1941 1851 1580 1546 1425 1825 1597 1228 1309 1176 808 842 694 618 258 61 283 142 114 21 8 7 40 15 27 3 0 0 0 0 0 0
0 0 0 0 0 0 0 0 0 0 0 0 0 0 0 436 1816 1992 1985 1846 1769 1825 1687 1544 1182 1013 883 927 539 289 293 195 181 198 112 139 65 14 26 36 27 31 1 0 0 0 0 0 0
0 0 0 0 0 0 0 0 0 0 0 0 0 0 0 0 179 2049 1923 1874 1749 1685 1669 1643 1085 853 690 693 381 178 184 118 69 193 108 163 59 11 22 37 40 18 9 0 0 0 0 0 0
0 0 0 0 0 0 0 0 0 0 0 0 0 0 0 0 0 450 1961 1814 1792 1658 1809 1761 1126 805 629 447 194 78 32 84 39 76 46 102 89 33 30 44 38 21 16 0 0 0 0 0 0
0 0 0 0 0 0 0 0 0 0 0 0 0 0 0 0 0 0 1303 1942 1925 1628 1543 1592 1281 1041 747 344 194 68 25 25 38 33 29 6 102 70 22 27 35 21 10 1 0 0 0 0 0
0 0 0 0 0 0 0 0 0 0 0 0 0 0 0 0 0 0 344 1869 1988 1792 1599 1094 941 1012 760 385 255 80 29 26 30 36 50 23 12 105 68 26 13 16 9 14 0 0 0 0 0
0 0 0 0 0 0 0 0 0 0 0 0 0 0 0 0 0 0 0 1636 2001 1791 1631 1165 1168 1086 741 440 131 129 56 15 11 46 75 80 1 64 39 38 8 24 13 3 0 0 0 0 0
0 0 0 0 0 0 3 0 0 0 0 0 0 0 0 0 0 0 0 0 1952 1729 1882 1529 1417 1307 915 133 80 162 67 18 19 104 99 98 59 28 82 44 4 11 1 0 0 0 0 0 0
0 0 0 0 0 0 0 0 0 0 0 0 0 0 0 0 0 0 0 0 319 2167 2019 1870 1529 1273 810 231 199 206 137 88 93 51 80 108 104 36 77 56 2 0 0 0 0 0 0 0 0
1 5 6 0 0 0 0 0 1 13 8 7 0 0 0 0 0 0 0 0 0 1953 2092 1960 1546 1221 570 272 271 220 49 36 31 105 187 156 96 106 111 109 15 0 0 0 0 0 0 0 0
29 56 34 15 43 0 0 0 0 15 32 56 67 28 52 132 46 35 8 0 0 77 2069 1965 1665 1106 671 380 319 315 310 29 27 78 37 180 206 118 79 157 69 2 1 0 0 0 0 0 0
20 36 64 22 19 12 2 61 0 6 1 17 42 70 55 1 0 0 3 9 0 16 292 1647 1591 1360 785 536 412 436 411 322 125 24 51 62 149 295 174 172 63 0 0 0 0 0 0 0 0
5 54 62 55 34 10 41 0 28 0 1 0 1 0 0 0 0 0 0 0 0 0 1 9 1114 1390 1062 764 522 497 524 389 218 62 39 64 78 302 263 200 95 2 0 0 0 0 0 0 0
15 38 61 20 6 0 94 14 23 55 33 2 1 0 0 0 0 0 0 0 0 0 0 0 0 495 1172 803 609 584 530 455 384 194 60 47 63 183 253 162 61 21 1 8 0 0 0 0 0
24 34 69 29 6 25 21 18 46 30 14 2 0 0 0 0 0 0 0 0 0 0 0 0 0 0 142 1063 868 649 513 524 465 282 203 56 44 37 150 169 79 75 2 0 0 0 0 0 0
2 41 35 21 15 27 36 24 4 8 3 1 0 0 0 0 0 0 0 0 0 0 0 0 0 0 18 275 1019 978 702 577 525 486 288 110 71 108 52 171 223 89 8 0 0 0 0 1 0
CIN
-0 -0 -0 -0 -0 -0 -0 -4 -0 -0 -0 -3 -40 -11 -51 -211 -0 -23 -34 -108 -197 -221 -191 -76 -22 -3 -0 -0 -0 -0 -0 -0 -0 -0 -0 -0 -0 -0 -0 -0 -0 -6 -98 -0 -0 -0 -0 -0 -0
-0 -0 -0 -0 -0 -0 -0 -0 -0 -0 -11 -44 -69 -30 -21 -265 -137 -128 -31 -117 -179 -223 -224 -76 -28 -13 -0 -0 -0 -0 -0 -0 -0 -0 -0 -0 -0 -0 -0 -0 -0 -78 -0 -0 -0 -0 -0 -0 -0
-0 -0 -0 -0 -0 -0 -0 -0 -0 -0 -0 -7 -18 -35 -342 -0 -43 -62 -34 -143 -176 -195 -217 -65 -41 -30 -10 -0 -0 -0 -0 -0 -0 -0 -0 -0 -0 -0 -0 -2 -53 -6 -0 -0 -0 -0 -0 -0 -0
-0 -0 -0 -0 -0 -0 -0 -0 -0 -0 -0 -0 -10 -48 -283 -186 -2 -67 -38 -139 -165 -160 -208 -83 -52 -44 -16 -0 -0 -0 -0 -1 -1 -0 -0 -0 -0 -1 -1 -38 -0 -0 -0 -0 -0 -0 -0 -0 -10
-0 -0 -0 -0 -0 -0 -19 -0 -0 -0 -0 -0 -0 -8 -42 -24 -17 -60 -53 -111 -123 -176 -206 -44 -53 -41 -11 -0 -0 -0 -0 -1 -1 -0 -0 -0 -0 -14 -0 -0 -0 -0 -0 -0 -0 -0 -0 -0 -15
-0 -0 -0 -0 -0 -0 -0 -0 -1 -0 -0 -0 -0 -17 -65 -70 -81 -21 -21 -62 -157 -230 -187 -51 -5 -11 -10 -1 -0 -0 -1 -3 -2 -0 -8 -9 -42 -8 -0 -0 -0 -0 -0 -0 -0 -0 -0 -8 -7
-0 -0 -0 -0 -0 -0 -0 -0 -11 -0 -0 -0 -0 -9 -72 -40 -72 -21 -14 -22 -130 -187 -195 -83 -4 -0 -1 -10 -7 -3 -5 -7 -2 -9 -37 -89 -0 -0 -0 -0 -0 -0 -0 -0 -0 -0 -0 -0 -25
-0 -0 -0 -0 -0 -0 -0 -0 -0 -0 -0 -0 -0 -11 -50 -49 -44 -3 -23 -31 -93 -147 -155 -129 -68 -11 -0 -0 -9 -7 -12 -12 -6 -27 -96 -0 -0 -2 -0 -0 -0 -0 -0 -0 -0 -0 -0 -0 -0
-0 -0 -0 -0 -0 -0 -0 -0 -0 -0 -0 -0 -0 -13 -40 -38 -18 -53 -48 -27 -73 -93 -103 -97 -98 -82 -62 -0 -0 -8 -11 -12 -21 -55 -29 -0 -1 -2 -1 -0 -0 -0 -0 -0 -0 -0 -0 -0 -0
-0 -0 -0 -0 -0 -0 -0 -0 -0 -0 -0 -0 -1 -22 -55 -56 -11 -47 -66 -31 -34 -67 -67 -69 -59 -74 -80 -64 -0 -1 -3 -16 -15 -45 -69 -2 -3 -2 -3 -0 -0 -0 -0 -0 -0 -0 -0 -0 -0
-0 -0 -0 -0 -0 -0 -0 -0 -0 -0 -0 -0 -33 -13 -20 -45 -7 -27 -52 -47 -44 -36 -20 -46 -24 -20 -55 -37 -3 -0 -14 -4 -10 -33 -45 -12 -0 -6 -0 -1 -0 -0 -0 -0 -0 -0 -0 -17 -0
-0 -0 -0 -0 -0 -0 -0 -0 -0 -0 -0 -0 -14 -11 -25 -35 -29 -48 -65 -71 -16 -10 -8 -17 -7 -16 -26 -127 -38 -21 -20 -9 -10 -12 -108 -4 -0 -0 -0 -3 -1 -0 -0 -0 -0 -0 -25 -0 -21
-0 -0 -0 -0 -0 -0 -0 -0 -0 -0 -0 -0 -36 -10 -17 -15 -18 -42 -39 -32 -6 -8 -7 -2 -7 -8 -73 -152 -59 -114 -94 -10 -44 -48 -80 -130 -0 -0 -29 -11 -17 -5 -0 -13 -9 -0 -0 -0 -0
-0 -0 -0 -0 -0 -0 -0 -0 -0 -0 -0 -0 -0 -7 -24 -26 -16 -17 -8 -7 -19 -13 -8 -4 -7 -9 -101 -153 -59 -41 -55 -26 -63 -67 -64 -49 -24 -0 -19 -21 -32 -22 -22 -0 -0 -0 -0 -0 -0
-0 -0 -0 -0 -0 -0 -0 -0 -0 -0 -0 -0 -0 -0 -80 -1 -0 -2 -0 -30 -26 -10 -12 -8 -9 -19 -18 -21 -28 -46 -35 -27 -62 -26 -82 -97 -32 -30 -17 -21 -47 -39 -34 -0 -0 -0 -0 -0 -0
-0 -0 -0 -0 -0 -0 -0 -0 -0 -0 -0 -0 -0 -0 -0 -16 -5 -13 -5 -4 -11 -8 -16 -11 -26 -39 -39 -11 -34 -59 -48 -48 -45 -57 -107 -64 -95 -24 -23 -29 -34 -26 -33 -0 -0 -0 -0 -0 -0
-0 -0 -0 -0 -0 -0 -0 -0 -0 -0 -0 -0 -0 -0 -0 -0 -3 -20 -34 -19 -11 -15 -15 -1 -40 -60 -49 -13 -43 -87 -48 -38 -58 -45 -91 -43 -75 -25 -24 -24 -26 -30 -19 -0 -0 -0 -0 -0 -0
-0 -0 -0 -0 -0 -0 -0 -0 -0 -0 -0 -0 -0 -0 -0 -0 -0 -5 -33 -25 -29 -23 -10 -3 -10 -42 -34 -33 -86 -116 -95 -48 -76 -65 -108 -95 -51 -131 -23 -21 -26 -25 -18 -0 -0 -0 -0 -0 -0
-0 -0 -0 -0 -0 -0 -0 -0 -0 -0 -0 -0 -0 -0 -0 -0 -0 -0 -19 -36 -18 -22 -14 -5 -5 -13 -14 -85 -113 -152 -148 -102 -66 -116 -98 -21 -38 -109 -27 -15 -24 -28 -15 -7 -0 -0 -0 -0 -0
-0 -0 -0 -0 -0 -0 -0 -0 -0 -0 -0 -0 -0 -0 -0 -0 -0 -0 -33 -23 -0 -18 -17 -16 -34 -14 -13 -61 -80 -95 -151 -149 -81 -95 -125 -147 -120 -54 -107 -16 -25 -14 -8 -18 -0 -0 -0 -0 -0
-0 -0 -0 -0 -0 -0 -0 -0 -0 -0 -0 -0 -0 -0 -0 -0 -0 -0 -0 -23 -9 -0 -2 -24 -8 -15 -22 -39 -137 -96 -82 -80 -163 -74 -154 -203 -51 -45 -58 -24 -23 -19 -10 -13 -0 -0 -0 -0 -0
-0 -0 -0 -0 -0 -0 -3 -0 -0 -0 -0 -0 -0 -0 -0 -0 -0 -0 -0 -0 -7 -5 -0 -4 -1 -1 -3 -172 -183 -108 -127 -111 -146 -141 -69 -100 -136 -79 -24 -63 -25 -16 -16 -6 -0 -0 -0 -0 -0
-0 -0 -0 -0 -0 -0 -0 -3 -0 -0 -0 -0 -0 -0 -0 -0 -0 -0 -0 -0 -2 -19 -4 -1 -9 -1 -2 -132 -142 -94 -64 -87 -91 -96 -67 -140 -157 -109 -51 -67 -23 -0 -16 -0 -0 -0 -0 -0 -0
-0 -1 -0 -0 -0 -0 -0 -0 -1 -1 -1 -0 -0 -0 -0 -0 -0 -0 -0 -0 -0 -32 -17 -24 -21 -3 -40 -96 -99 -74 -129 -155 -183 -111 -29 -104 -124 -117 -74 -19 -32 -0 -1 -0 -0 -0 -0 -0 -0
-7 -0 -0 -0 -0 -0 -0 -0 -0 -8 -71 -62 -43 -45 -42 -75 -58 -56 -27 -0 -0 -20 -26 -29 -15 -2 -23 -74 -67 -43 -40 -151 -170 -118 -104 -62 -50 -74 -88 -96 -64 -66 -26 -4 -0 -0 -0 -0 -0
-15 -3 -0 -0 -0 -0 -6 -0 -0 -130 -6 -81 -124 -99 -111 -34 -0 -6 -37 -64 -0 -87 -53 -16 -17 -10 -12 -37 -46 -34 -37 -22 -95 -131 -100 -106 -45 -11 -17 -21 -47 -0 -0 -0 -0 -0 -0 -0 -0
-12 -0 -1 -1 -1 -0 -12 -1 -128 -0 -0 -0 -0 -0 -0 -0 -0 -0 -0 -0 -0 -0 -74 -62 -3 -0 -8 -21 -35 -25 -17 -11 -50 -109 -126 -89 -89 -24 -9 -27 -51 -19 -0 -0 -0 -0 -0 -0 -0
-60 -0 -3 -3 -8 -0 -3 -1 -0 -0 -0 -0 -0 -0 -0 -0 -0 -0 -0 -0 -0 -0 -0 -0 -0 -47 -2 -13 -12 -22 -20 -14 -16 -31 -93 -145 -140 -28 -21 -19 -48 -60 -1 -79 -0 -0 -0 -0 -0
-10 -5 -0 -1 -4 -0 -8 -0 -0 -0 -0 -0 -0 -0 -0 -0 -0 -0 -0 -0 -0 -0 -0 -0 -0 -0 -108 -2 -4 -8 -22 -20 -13 -18 -38 -157 -189 -159 -21 -17 -27 -18 -0 -3 -0 -0 -0 -0 -0
-0 -1 -0 -3 -3 -0 -0 -0 -0 -0 -0 -0 -0 -0 -0 -0 -0 -0 -0 -0 -0 -1 -0 -0 -0 -0 -205 -46 -3 -0 -7 -36 -13 -5 -21 -106 -137 -87 -65 -24 -4 -29 -67 -0 -0 -0 -0 -0 -0
Wind_Speed
18 16 10 9 8 8 15 18 12 5 2 11 8 11 16 17 10 4 11 23 25 20 18 19 20 21 21 20 18 18 19 18 18 17 16 17 19 20 20 21 22 22 23 23 22 22 21 21 20
11 15 9 7 11 11 13 12 4 13 13 8 4 3 19 11 16 7 16 23 23 20 17 18 20 23 21 20 18 18 18 19 17 17 17 20 20 20 21 22 22 22 22 22 22 22 21 20 17
13 13 8 7 12 14 14 15 6 6 9 2 2 11 8 8 21 17 23 25 22 18 17 18 20 22 23 19 18 18 19 17 18 17 19 20 20 21 22 22 20 22 22 22 21 23 22 18 14
8 8 7 11 18 20 20 8 1 8 3 3 12 17 8 9 2 13 24 25 20 19 19 15 19 21 23 20 18 18 18 17 17 17 18 21 21 22 21 21 21 21 22 21 21 21 18 16 11
7 7 11 16 20 21 20 8 13 12 2 7 3 16 12 11 11 17 21 21 20 21 17 16 17 20 22 21 19 18 17 16 17 19 19 21 22 22 21 21 20 21 21 20 20 19 17 15 12
9 10 13 15 19 20 17 19 10 5 6 1 1 9 7 6 17 15 18 18 23 21 17 16 17 18 20 20 19 17 17 16 17 20 20 22 22 21 21 21 20 20 20 20 20 18 16 14 12
11 11 15 18 19 19 17 9 6 7 7 6 3 7 9 14 16 17 16 21 21 20 17 14 14 15 16 18 19 18 17 16 20 21 21 21 21 21 21 20 21 20 20 19 18 16 13 13 11
11 12 19 18 15 19 12 6 3 1 8 9 4 3 12 16 18 16 18 18 19 18 17 15 14 13 12 12 17 17 16 16 21 21 22 22 21 21 19 18 19 19 19 17 16 13 12 9 8
11 10 14 19 19 18 3 4 5 3 7 12 4 14 17 16 18 19 17 13 15 14 15 14 14 13 13 12 13 16 18 18 20 20 22 17 11 14 15 16 17 17 16 15 14 11 9 9 5
10 13 19 20 18 13 4 6 5 8 9 11 12 19 16 12 18 16 16 14 13 14 15 13 14 13 13 12 12 11 13 10 11 11 12 10 12 11 14 14 17 15 15 13 12 13 14 13 6
16 16 18 22 15 8 12 6 9 9 11 14 16 20 16 12 13 13 14 15 14 14 12 14 12 13 13 13 9 7 7 8 9 12 8 11 11 10 9 7 6 6 10 5 4 2 3 0 5
21 19 19 20 20 3 11 14 10 7 6 10 8 22 18 14 9 12 15 15 15 16 16 15 13 13 10 10 9 10 8 8 8 9 11 9 7 9 9 6 8 7 6 8 7 4 1 7 7
19 18 20 17 18 6 8 15 15 7 5 9 11 13 15 11 13 12 13 14 15 14 17 17 14 10 13 12 7 9 7 8 9 8 12 9 10 8 8 6 6 6 5 5 5 4 5 5 4
18 18 14 16 22 14 13 16 16 11 11 10 10 15 16 17 16 13 14 16 14 15 15 16 15 10 14 11 7 7 5 8 9 8 10 11 9 8 7 5 4 4 4 5 5 5 4 4 5
15 20 17 19 19 16 15 21 23 17 13 13 13 12 15 19 22 18 14 12 16 15 16 15 15 8 7 9 7 4 2 6 8 8 10 11 10 9 9 6 3 4 5 7 6 5 5 5 4
18 18 17 18 21 20 16 24 19 20 20 19 19 15 14 16 23 21 17 14 13 14 17 16 13 12 9 5 7 5 3 3 2 9 7 10 10 9 6 5 5 3 5 5 5 5 4 5 5
15 18 23 22 23 21 24 26 20 22 25 19 16 15 15 13 11 21 21 17 13 15 16 18 16 16 13 8 8 8 6 4 3 9 7 7 12 11 7 5 4 5 4 5 5 4 5 5 4
17 20 22 25 22 23 25 23 17 18 13 21 16 17 15 16 17 14 24 20 17 11 14 16 15 16 14 10 7 7 5 4 3 7 8 6 9 12 8 6 5 5 4 4 4 5 4 4 5
22 25 28 26 20 24 23 22 21 17 12 11 15 17 15 12 13 11 14 21 19 15 11 14 15 17 12 9 9 9 8 5 3 8 10 8 6 11 10 7 5 5 5 5 6 5 6 3 3
21 23 26 24 25 21 18 22 16 19 18 15 14 13 16 16 13 13 13 19 18 18 16 13 12 14 13 10 8 8 10 7 4 9 11 11 7 9 9 9 7 7 6 6 6 6 4 3 4
19 20 21 24 22 24 15 15 16 17 21 18 16 14 12 14 17 12 11 17 17 17 17 16 17 16 13 12 9 8 7 6 5 7 11 13 14 8 11 11 10 8 6 6 7 6 7 5 4
18 21 25 24 21 17 20 15 19 19 20 16 18 15 12 16 13 10 16 13 17 15 18 17 16 17 14 15 14 17 12 11 8 8 8 11 14 12 10 12 12 9 4 5 7 6 7 6 8
16 16 21 24 23 22 27 15 15 23 21 23 15 15 11 6 7 11 7 15 14 16 14 14 14 16 14 15 15 12 12 8 6 7 13 13 15 15 12 11 13 11 8 8 8 7 7 4 7
14 16 17 19 17 16 22 19 16 15 19 24 27 21 17 14 10 7 10 4 6 19 18 16 15 14 15 16 16 17 16 12 7 7 9 9 9 10 15 13 13 13 13 11 11 9 10 7 4
3 10 10 9 13 12 18 17 13 13 15 19 15 10 14 19 13 10 11 3 2 2 19 18 18 15 17 18 17 17 17 15 14 9 9 11 10 10 15 18 16 13 15 12 11 10 11 9 6
17 11 7 9 12 15 22 17 9 17 24 17 18 20 21 17 16 16 16 13 14 13 8 16 18 17 16 17 18 16 17 11 10 11 9 9 9 11 14 14 14 16 15 12 12 10 10 11 8
6 9 11 15 10 4 9 17 16 21 25 23 26 19 18 17 14 15 15 15 12 14 14 12 10 14 16 17 16 16 15 15 13 14 12 8 10 9 12 14 14 14 15 15 14 12 13 12 12
11 6 4 3 2 7 13 5 9 13 14 14 11 13 16 17 15 14 15 16 16 15 14 14 12 5 14 14 15 14 13 15 13 13 15 15 9 7 14 15 16 15 15 15 15 12 12 13 11
0 6 6 7 1 5 4 5 11 16 13 15 16 17 17 16 16 14 12 14 15 15 15 15 14 11 6 16 15 16 15 15 15 13 15 15 12 13 8 15 16 16 16 15 14 14 14 16 14
22 18 7 3 4 4 5 7 14 18 16 16 16 19 19 19 17 15 14 13 13 14 14 16 17 15 13 7 16 17 17 17 16 16 15 14 14 12 14 11 16 17 17 16 17 17 15 17 17
Wind_Direction
300 287 262 277 260 236 261 263 4 209 200 86 249 32 96 94 123 31 108 105 117 120 126 122 122 123 123 122 121 118 112 110 108 105 103 99 98 96 96 92 88 89 88 88 86 85 86 88 92
299 299 278 278 261 253 254 275 5 300 93 79 84 289 86 118 146 181 111 119 120 128 126 128 127 126 122 124 122 120 115 113 110 109 105 102 100 98 96 91 89 90 89 87 87 87 91 91 87
268 271 278 243 244 249 265 282 340 32 38 29 111 79 88 357 130 146 122 119 124 132 129 125 126 128 126 124 123 121 119 115 113 109 108 104 101 101 96 93 93 92 91 90 89 94 91 80 65
266 238 240 264 260 247 243 227 333 269 151 320 27 84 96 154 314 128 123 124 134 126 122 124 125 125 123 125 123 122 119 116 114 111 112 109 108 101 97 93 94 94 94 93 93 94 85 71 56
241 271 246 248 248 263 280 260 163 254 122 225 53 90 92 95 109 134 129 130 139 114 127 130 120 122 125 126 124 122 119 117 113 109 110 106 103 100 96 94 96 98 95 94 97 95 79 67 62
262 227 258 256 253 257 251 261 136 169 267 307 345 115 87 132 127 139 130 133 112 121 130 133 121 122 123 123 123 122 120 118 114 111 110 104 102 101 97 99 101 100 99 98 101 93 84 74 84
257 266 248 261 270 272 243 227 141 151 248 232 266 298 127 143 138 139 130 114 121 127 128 131 128 119 117 122 123 123 122 115 118 114 110 106 104 102 102 105 106 106 103 102 101 96 86 74 63
254 266 271 275 275 276 321 164 115 14 199 245 310 332 148 135 145 127 101 110 121 124 128 137 135 135 132 131 124 125 122 112 120 118 115 112 109 107 105 106 108 108 109 106 107 100 88 74 64
264 262 257 256 258 271 149 120 135 100 270 256 134 80 120 136 109 106 103 105 114 125 134 139 144 144 140 133 129 127 127 118 124 125 126 124 124 122 102 106 110 110 112 113 117 118 115 103 85
217 248 246 264 273 323 19 148 209 156 232 224 137 103 123 148 122 125 135 133 136 135 144 148 151 149 146 142 149 137 134 138 139 145 155 128 120 114 108 109 114 112 120 129 149 163 168 167 154
236 243 268 280 327 342 315 330 259 155 231 230 160 130 137 157 124 143 148 146 149 153 150 151 161 149 153 136 154 151 156 155 155 154 156 108 113 113 113 119 120 127 135 148 168 193 243 185 110
255 250 260 275 287 351 294 290 282 191 280 50 179 133 139 150 166 166 153 157 160 165 152 158 172 155 143 150 162 156 168 164 161 160 129 134 123 131 131 147 157 157 164 173 168 209 223 52 39
260 251 256 264 279 246 271 276 269 208 198 96 116 121 139 163 167 165 166 174 164 165 163 162 167 166 140 155 180 163 167 156 155 148 142 145 135 141 142 160 169 189 170 179 116 98 83 75 60
292 283 281 276 268 256 240 254 260 241 237 162 169 159 162 169 176 178 189 171 178 166 165 159 163 178 147 164 198 167 164 148 160 142 147 143 142 141 151 161 171 211 173 107 138 116 139 95 78
285 275 273 258 265 241 254 247 242 234 218 233 205 204 181 178 172 180 183 176 174 175 157 162 161 158 146 151 123 108 107 129 159 133 138 139 133 151 144 156 183 234 121 135 106 153 106 128 108
277 267 260 250 242 246 234 250 235 228 232 203 218 209 210 190 172 173 178 179 167 170 152 160 161 158 160 137 135 123 144 137 155 129 141 126 143 145 141 158 195 170 125 122 144 129 151 117 118
241 255 252 250 242 240 219 243 246 258 212 206 199 210 207 202 202 165 169 168 177 171 172 163 160 163 165 154 145 145 174 182 153 130 147 144 153 155 154 172 195 146 141 141 160 159 135 129 131
262 249 236 248 254 224 234 229 238 270 228 204 199 200 198 207 204 183 163 167 167 178 171 167 158 164 169 161 148 153 166 189 157 139 151 159 161 164 164 172 169 146 145 152 164 141 130 142 167
284 272 272 278 268 229 252 224 206 229 208 216 211 221 187 209 195 183 163 158 164 167 163 172 167 166 159 173 156 160 179 187 187 145 152 172 174 171 163 167 173 157 164 172 152 142 149 139 136
303 291 285 276 273 277 260 226 239 242 200 205 216 218 189 175 223 181 174 151 164 167 166 165 177 167 174 166 167 175 175 190 200 147 159 170 192 185 173 166 176 181 169 174 154 150 152 139 143
304 292 288 289 284 285 240 258 239 242 243 194 206 202 199 190 188 187 168 152 169 171 172 174 182 176 183 152 154 161 162 227 191 166 169 172 183 200 183 172 175 196 168 172 167 162 170 161 175
292 297 302 299 286 274 265 232 224 242 263 240 189 214 210 186 175 193 165 173 174 177 172 176 185 180 179 156 169 171 173 192 218 158 165 170 177 197 194 176 172 185 178 175 173 174 182 161 183
288 297 294 294 292 277 263 264 224 220 226 253 220 203 201 243 212 177 203 176 179 170 174 176 176 183 172 171 175 177 179 192 203 180 182 176 174 188 197 185 176 176 194 190 186 182 195 195 182
318 301 277 265 269 266 270 258 256 230 228 222 226 213 203 207 198 198 179 234 193 169 172 172 176 175 171 179 184 185 192 200 202 194 177 181 190 189 186 190 184 183 188 187 194 192 200 209 202
311 297 271 245 238 249 235 250 253 276 31 22 19 124 91 54 50 53 34 64 238 299 166 173 169 179 178 183 188 195 198 201 208 205 204 181 190 194 203 185 184 187 190 187 182 185 201 210 211
289 254 269 255 240 229 242 225 215 30 23 45 59 49 56 46 32 20 19 11 357 358 15 174 180 175 184 187 192 196 204 204 199 205 212 208 201 191 196 197 198 184 181 186 181 189 201 206 214
339 248 270 278 279 301 257 212 53 16 25 13 20 37 38 37 34 20 5 357 355 352 347 357 212 190 185 196 194 202 204 207 207 208 221 219 217 192 194 192 195 203 186 188 190 196 197 200 207
247 318 285 110 198 231 206 124 42 360 16 358 30 34 34 27 14 13 1 354 349 342 331 330 329 252 201 197 202 200 206 213 213 209 214 222 229 229 190 188 196 196 202 191 191 196 198 200 206
220 218 224 244 209 319 85 86 11 2 3 359 358 25 23 15 7 352 348 343 337 331 325 320 321 307 283 201 198 203 206 214 213 213 217 220 220 227 237 197 196 199 201 197 196 202 201 202 205
30 16 301 329 16 325 34 77 23 8 2 1 5 5 360 359 352 350 337 331 327 328 327 320 320 318 312 268 210 208 210 201 218 221 210 212 220 217 223 221 198 199 196 197 200 202 203 207 204